Weather History for Auburn, IN

Change the Weather History Date:

Monday, March 26, 2012

  Actual Average (KFWA) Record (KFWA)
Temperature  
Mean Temperature 43 °F 42 °F  
Max Temperature 51 °F 53 °F 83 °F (1907)
Min Temperature 35 °F 32 °F 5 °F (2001)
Degree Days  
Heating Degree Days 22 23  
Month to date heating degree days 719  
Since 1 July heating degree days 5317  
Cooling Degree Days 0 0  
Month to date cooling degree days 0  
Year to date cooling degree days 0  
Moisture  
Dew Point 30 °F    
Average Humidity 60    
Maximum Humidity 81    
Minimum Humidity 40    
Precipitation  
Precipitation 0.00 in 0.09 in 1.20 in (1934)
Month to date precipitation 2.18  
Year to date precipitation 6.48  
Snow  
Snow 0.00 in 0.00 in 3.30 in (2002)
Month to date snowfall 3.7  
Since 1 July snowfall 32.1  
Snow Depth -    
Sea Level Pressure  
Sea Level Pressure 30.26 in    
Wind  
Wind Speed 10 mph (NE)    
Max Wind Speed 16 mph    
Max Gust Speed 21 mph    
Visibility 10 miles    
Events      
T = Trace of Precipitation, MM = Missing Value Source: NWS Daily Summary

Daily Weather History Graph

Daily Weather History Graph

Search for Another Location

Airport:

Trip Planner

Search our weather history database for the weather conditions in past years. The results will help you decide how hot, cold, wet, or windy it might be!

Date:

Astronomy

Mar. 26, 2012 Rise Set
Actual Time 7:32 AM EDT 7:59 PM EDT
Civil Twilight 7:05 AM EDT 8:27 PM EDT
Nautical Twilight 6:32 AM EDT 8:59 PM EDT
Astronomical Twilight 5:59 AM EDT 9:33 PM EDT
Moon 9:18 AM EDT (3/26) No Moon Set
Length of Visible Light 13h 22m
Length of Day
12h 26m
Waxing Crescent, 14% of the Moon is Illuminated
Mar 26
Waxing Crescent
Mar 30
First Quarter
Apr 6
Full
Apr 13
Last Quarter
Apr 21
New

Hourly Weather History & Observations

Time (EDT) Temp. Windchill Dew Point Humidity Pressure Visibility Wind Dir Wind Speed Gust Speed Precip Events Conditions
12:15 AM 51.8 °F - 41.0 °F 67% 30.07 in 10.0 mi NNW 9.2 mph - N/A   Clear
12:55 AM 51.8 °F - 42.8 °F 71% 30.08 in 10.0 mi North 9.2 mph - N/A   Clear
1:15 AM 50.0 °F - 42.8 °F 76% 30.09 in 10.0 mi North 10.4 mph - N/A   Clear
1:35 AM 51.8 °F - 35.6 °F 54% 30.09 in 10.0 mi NNE 16.1 mph - N/A   Clear
1:55 AM 50.0 °F - 32.0 °F 50% 30.10 in 10.0 mi NNE 8.1 mph - N/A   Clear
2:15 AM 50.0 °F - 32.0 °F 50% 30.11 in 10.0 mi North 12.7 mph - N/A   Clear
2:55 AM 46.4 °F 41.9 °F 32.0 °F 57% 30.12 in 10.0 mi North 9.2 mph - N/A   Clear
3:15 AM 46.4 °F 40.7 °F 32.0 °F 57% 30.12 in 10.0 mi North 12.7 mph - N/A   Clear
3:35 AM 46.4 °F 40.7 °F 32.0 °F 57% 30.13 in 10.0 mi NNE 12.7 mph 18.4 mph N/A   Clear
3:55 AM 44.6 °F 39.7 °F 32.0 °F 61% 30.13 in 10.0 mi NNE 9.2 mph 16.1 mph N/A   Clear
4:15 AM 44.6 °F 39.2 °F 32.0 °F 61% 30.13 in 10.0 mi North 10.4 mph - N/A   Clear
4:55 AM 42.8 °F 38.6 °F 32.0 °F 66% 30.16 in 10.0 mi North 6.9 mph - N/A   Clear
5:15 AM 41.0 °F 34.7 °F 30.2 °F 65% 30.17 in 10.0 mi North 10.4 mph 16.1 mph N/A   Clear
5:35 AM 41.0 °F 33.9 °F 30.2 °F 65% 30.18 in 10.0 mi North 12.7 mph 17.3 mph N/A   Clear
5:55 AM 39.2 °F 31.2 °F 30.2 °F 70% 30.19 in 10.0 mi North 13.8 mph 18.4 mph N/A   Clear
6:15 AM 37.4 °F 29.3 °F 30.2 °F 75% 30.20 in 10.0 mi North 12.7 mph 20.7 mph N/A   Clear
6:35 AM 37.4 °F 30.8 °F 30.2 °F 75% 30.20 in 10.0 mi North 9.2 mph - N/A   Clear
6:55 AM 37.4 °F 30.3 °F 30.2 °F 75% 30.22 in 10.0 mi North 10.4 mph 17.3 mph N/A   Clear
7:15 AM 35.6 °F 27.5 °F 30.2 °F 81% 30.23 in 10.0 mi NNE 11.5 mph - N/A   Clear
7:35 AM 35.6 °F 28.0 °F 30.2 °F 81% 30.24 in 10.0 mi NNE 10.4 mph - N/A   Clear
8:15 AM 35.6 °F 28.0 °F 28.4 °F 75% 30.28 in 10.0 mi NNE 10.4 mph 18.4 mph N/A   Clear
8:35 AM 35.6 °F 27.5 °F 28.4 °F 75% 30.29 in 10.0 mi NE 11.5 mph - N/A   Clear
8:55 AM 35.6 °F 27.1 °F 28.4 °F 75% 30.31 in 10.0 mi NE 12.7 mph 17.3 mph N/A   Clear
9:15 AM 35.6 °F 26.2 °F 28.4 °F 75% 30.31 in 10.0 mi NNE 15.0 mph 19.6 mph N/A   Clear
9:35 AM 37.4 °F 30.3 °F 28.4 °F 70% 30.32 in 10.0 mi NNE 10.4 mph - N/A   Clear
9:55 AM 37.4 °F 29.8 °F 28.4 °F 70% 30.32 in 10.0 mi North 11.5 mph - N/A   Clear
10:15 AM 37.4 °F 30.3 °F 30.2 °F 75% 30.33 in 10.0 mi NNE 10.4 mph 17.3 mph N/A   Clear
10:35 AM 39.2 °F 33.0 °F 30.2 °F 70% 30.33 in 10.0 mi NE 9.2 mph 16.1 mph N/A   Clear
10:55 AM 41.0 °F 33.5 °F 30.2 °F 65% 30.34 in 10.0 mi NNE 13.8 mph 17.3 mph N/A   Clear
11:35 AM 41.0 °F 33.5 °F 30.2 °F 65% 30.35 in 10.0 mi NE 13.8 mph 18.4 mph N/A   Clear
11:55 AM 42.8 °F 37.5 °F 30.2 °F 61% 30.35 in 10.0 mi NE 9.2 mph 17.3 mph N/A   Clear
12:15 PM 42.8 °F 36.6 °F 30.2 °F 61% 30.36 in 10.0 mi NE 11.5 mph 18.4 mph N/A   Clear
12:35 PM 42.8 °F 39.3 °F 30.2 °F 61% 30.36 in 10.0 mi NE 5.8 mph 16.1 mph N/A   Clear
12:55 PM 44.6 °F 38.1 °F 30.2 °F 57% 30.35 in 10.0 mi ENE 13.8 mph 17.3 mph N/A   Clear
1:15 PM 44.6 °F 38.8 °F 30.2 °F 57% 30.35 in 10.0 mi ENE 11.5 mph - N/A   Clear
1:35 PM 46.4 °F 41.5 °F 30.2 °F 53% 30.35 in 10.0 mi ENE 10.4 mph - N/A   Clear
1:55 PM 46.4 °F 42.4 °F 30.2 °F 53% 30.35 in 10.0 mi NE 8.1 mph - N/A   Clear
2:15 PM 46.4 °F 43.5 °F 30.2 °F 53% 30.34 in 10.0 mi East 5.8 mph 18.4 mph N/A   Clear
2:35 PM 48.2 °F - 30.2 °F 50% 30.34 in 10.0 mi ENE 6.9 mph 16.1 mph N/A   Clear
2:55 PM 48.2 °F - 30.2 °F 50% 30.34 in 10.0 mi NE 12.7 mph 16.1 mph N/A   Clear
3:15 PM 48.2 °F - 28.4 °F 46% 30.34 in 10.0 mi NE 6.9 mph 16.1 mph N/A   Clear
3:35 PM 50.0 °F - 30.2 °F 47% 30.33 in 10.0 mi NE 11.5 mph 18.4 mph N/A   Clear
3:55 PM 48.2 °F - 28.4 °F 46% 30.33 in 10.0 mi ENE 4.6 mph 17.3 mph N/A   Clear
4:15 PM 50.0 °F - 28.4 °F 43% 30.32 in 10.0 mi East 6.9 mph - N/A   Clear
4:35 PM 50.0 °F - 28.4 °F 43% 30.33 in 10.0 mi NNE 11.5 mph - N/A   Clear
4:55 PM 50.0 °F - 28.4 °F 43% 30.32 in 10.0 mi ENE 8.1 mph 16.1 mph N/A   Clear
5:15 PM 50.0 °F - 26.6 °F 40% 30.32 in 10.0 mi East 11.5 mph - N/A   Clear
5:35 PM 50.0 °F - 28.4 °F 43% 30.32 in 10.0 mi East 6.9 mph 17.3 mph N/A   Clear
5:55 PM 50.0 °F - 26.6 °F 40% 30.32 in 10.0 mi NE 10.4 mph - N/A   Clear
6:15 PM 46.4 °F 42.4 °F 28.4 °F 50% 30.32 in 10.0 mi ENE 8.1 mph - N/A   Clear
6:35 PM 46.4 °F 42.4 °F 26.6 °F 46% 30.32 in 10.0 mi East 8.1 mph - N/A   Clear
6:55 PM 44.6 °F 39.7 °F 26.6 °F 49% 30.32 in 10.0 mi ENE 9.2 mph - N/A   Clear
7:15 PM 44.6 °F 41.4 °F 28.4 °F 53% 30.33 in 10.0 mi ENE 5.8 mph - N/A   Clear
7:35 PM 44.6 °F 40.2 °F 26.6 °F 49% 30.33 in 10.0 mi East 8.1 mph - N/A   Clear
7:55 PM 42.8 °F 40.1 °F 26.6 °F 53% 30.32 in 10.0 mi East 4.6 mph - N/A   Clear
8:15 PM 42.8 °F 38.6 °F 28.4 °F 57% 30.33 in 10.0 mi East 6.9 mph - N/A   Clear
8:35 PM 42.8 °F 38.6 °F 26.6 °F 53% 30.33 in 10.0 mi East 6.9 mph - N/A   Clear
8:55 PM 41.0 °F 36.4 °F 26.6 °F 57% 30.33 in 10.0 mi East 6.9 mph - N/A   Clear
9:15 PM 41.0 °F 37.1 °F 26.6 °F 57% 30.34 in 10.0 mi East 5.8 mph - N/A   Clear
9:35 PM 41.0 °F 36.4 °F 26.6 °F 57% 30.33 in 10.0 mi East 6.9 mph - N/A   Clear
9:55 PM 41.0 °F 36.4 °F 24.8 °F 53% 30.35 in 10.0 mi East 6.9 mph - N/A   Clear
10:15 PM 39.2 °F 35.9 °F 26.6 °F 61% 30.36 in 10.0 mi ESE 4.6 mph - N/A   Clear
10:35 PM 39.2 °F 35.9 °F 28.4 °F 65% 30.37 in 10.0 mi ESE 4.6 mph - N/A   Clear
10:55 PM 37.4 °F 32.1 °F 26.6 °F 65% 30.37 in 10.0 mi ESE 6.9 mph - N/A   Clear
11:15 PM 37.4 °F 31.4 °F 26.6 °F 65% 30.36 in 10.0 mi ESE 8.1 mph - N/A   Clear
11:35 PM 35.6 °F 30.7 °F 26.6 °F 70% 30.37 in 10.0 mi ESE 5.8 mph - N/A   Clear
11:55 PM 35.6 °F 29.9 °F 26.6 °F 70% 30.37 in 10.0 mi ESE 6.9 mph - N/A   Clear